Regional Weather Roundup
Issued by NWS Jackson, KY

Home | Current Version | Previous Version | Graphics & Text | Print | Product List | Glossary On
Versions: 1 2 3 4 5 6 7 8 9 10 11 12 13 14 15 16 17 18 19 20 21 22 23 24 25 26 27 28 29 30 31 32 33 34 35 36 37 38 39 40 41 42 43 44 45 46 47 48 49 50
000
ASUS43 KJKL 011310
RWRJKL

EAST KENTUCKY HOURLY WEATHER ROUNDUP
NATIONAL WEATHER SERVICE JACKSON KY
900 AM EDT WED JUL 01 2015

NOTE: "FAIR" INDICATES FEW OR NO CLOUDS BELOW 12,000 FEET WITH
NO SIGNIFICANT WEATHER AND/OR OBSTRUCTIONS TO VISIBILITY.

* THESE REPORTS ARE NOT UNDER NWS QUALITY CONTROL AND MAY NOT
  REPORT WEATHER SUCH AS PRECIPITATION AND FOG.

KYZ079-080-083-085-087-088-110-112-115-119-120-011400
...EASTERN KENTUCKY...

CITY           SKY/WX    TMP DP  RH WIND       PRES   REMARKS
JACKSON        CLOUDY    66  64  93 SW3       29.98R FOG
LONDON         CLOUDY    73  66  78 SW6       29.99R
SOMERSET*      CLOUDY    72  70  94 W5        29.99R FOG
MONTICELLO*    CLOUDY    74  74 100 CALM      30.02R
MIDDLESBORO*   CLOUDY    68  67  98 CALM      30.01R
HARLAN APT*      N/A     64  63  94 CALM      30.02S
HAZARD APT*    PTSUNNY   70  70 100 SW6       29.99R
BLACK MTN*       N/A    N/A N/A N/A W5          N/A
PIKEVILLE APT* SUNNY     66  64  94 SW5       29.98R
BIG SANDY*     MOSUNNY   68  65  92 SW8       29.97R
MOREHEAD APT*  PTSUNNY   66  64  94 S6        29.97R FOG
$$

KYZ035-036-041-042-044-050-067-078-099-011400
...CENTRAL KENTUCKY...

CITY           SKY/WX    TMP DP  RH WIND       PRES   REMARKS
MT STERLING*   CLOUDY    68  66  94 SW3       29.97R
FLEMING/MASON* MOSUNNY   66  64  94 NW3       29.96R
DANVILLE*      CLOUDY    72  68  88 SW9       29.99R
RICHMOND*      CLOUDY    72  66  83 SW9       29.97R
LEXINGTON      MOSUNNY   70  68  93 SW9       29.95R FOG
FRANKFORT      MOSUNNY   70  67  90 W5        29.95R FOG
$$

KYZ091>093-OHZ055-061-077-WVZ005-015-034-035-042-011400
...SOUTHERN OHIO/WEST VIRGINIA...

CITY           SKY/WX    TMP DP  RH WIND       PRES   REMARKS
COVINGTON      MOSUNNY   66  63  90 N5        29.94R
COLUMBUS       MOSUNNY   65  61  87 W6        29.90R
DAYTON         PTSUNNY   66  59  78 NW8       29.94R
WILMINGTON     SUNNY     67  59  75 NW5       29.93R
HUNTINGTON     CLOUDY    62  62 100 CALM      29.94R FOG
CHARLESTON     HVY RAIN  63  61  93 SW5       29.94R FOG
PINEVILLE*     CLOUDY    62  62 100 MISG      30.05R
BECKLEY        MOSUNNY   64  60  87 SW9       30.01F
BLUEFIELD      CLOUDY    66  61  84 W7        30.04S
$$

VAZ002-007-008-TNZ017-027-036-066-071-011400
...SOUTHWEST VIRGINIA/EAST TENNESSEE...

CITY           SKY/WX    TMP DP  RH WIND       PRES   REMARKS
WISE*          CLOUDY    64  64 100 SW8       30.07R FOG
JONESVILLE*      N/A    N/A N/A N/A MISG        N/A
ABINGDON*      CLOUDY    68  67  95 W5        30.05R FOG
BRISTOL        CLOUDY    70  66  87 SW7       30.02S
KNOXVILLE      CLOUDY    72  68  87 SW9       30.00R
OAK RIDGE      CLOUDY    72  68  87 VRB5      30.02R
CROSSVILLE     PTSUNNY   72  67  84 W6        30.06R
NASHVILLE      CLOUDY    76  71  85 S7        29.99R
$$

...KEY TO REMARKS...
VSB - VISIBILITY IN MILES
WCI - WIND CHILL INDEX
HX  - HEAT INDEX

$$



USA.gov is the U.S. government's official web portal to all federal, state and local government web resources and services.